User: anonymous   Login
Location: Drayton Valley
(53.2170°N, 114.9830°W)
Time: 04:41:52
(UTC-06:00)
Language:

MOZ.5/SAFIR/RUBIN 5/SL-8 - Orbit

View from above orbital plane
View from above orbital plane
View from above satellite
View from above satellite

Ground track
Ground track

The orbit data is extracted from the following two-line orbital elements,

1 28898U 05043G   14303.09145637  .00000680  00000-0  15183-3 0  9651
2 28898 097.8353 125.2224 0019229 334.6059 135.4714 14.59599477479604
Epoch (UTC): 30 October 2014 02:11:41
Eccentricity: 0.0019229
inclination: 97.8353°
perigee height: 681 km
apogee height: 708 km
right ascension of ascending node: 125.2224°
argument of perigee: 334.6059°
revolutions per day: 14.59599477
mean anomaly at epoch: 135.4714°
orbit number at epoch: 47960

The dashed part of the orbit path shows where the satellite is in the earth's shadow,  

DLR